CZ-6A DEB

Satellite information

Favourite Embed

Satellite Type and Status

DEBRISIN ORBIT

Key statistics

Satellite CZ-6A DEB at a glance.

Uptime

969

Days in orbit

Revolutions

≈ 14.6

Per day

Orbit

SSO

Sun Synchronous Orbit

Inclination

99.1

Latest

Satellite identification and parameters

Extended collection of information and parameters for CZ-6A DEB.

Object identification

Identified? True

Debris? True

Object name: CZ-6A DEB

International designator: 2022-151SJ

Object number (NORAD): 54945

Object ID (CCSDS): 54945

Country: PEOPLES REPUBLIC OF CHINA (PRC)

Current information (Y/N): Y

RCS size: SMALL

Orbital parameters

Period: 98.949 minutes

Inclination: 99.1231 deg

SMA: 7086.551 km

Apoapsis: 763.776 km

Periapsis: 653.055 km

RAAN: 282.4963 deg

Eccentricy: 0.007812

Argument of periapsis: 321.2219 deg

Mean anomaly: 38.3384 deg

Mean motion: 14.55292943 rev/day

Mean motion (dot): 0.00004582 rev/day2

B* drag term: 0.0010272 1/REarth

Two-line elements (TLE)

Creation date: July 6, 2025, 10:46 p.m.

Reference frame: TEME

Reference center: EARTH

Epoch: July 6, 2025, 5:28 p.m. UTC

TLE line 0: 0 CZ-6A DEB

TLE line 1: 1 54945U 22151SJ 25187.72843177 .00004582 00000-0 10272-2 0 9993

TLE line 2: 2 54945 99.1231 282.4963 0078120 321.2219 38.3384 14.55292943139046

Live tracking on map

Real-time ground track for satellite CZ-6A DEB.

In-orbit conjunctions

A list of the most updated potential collisions computed for object CZ-6A DEB.

Target Orbit TCA Probability of collision Miss distance Type
COSMOS 2251 DEB LEO 2024-11-08 23:59:53 0.0004346252 796.0 (m) DEBRIS
OSCAR 17 (DOVE) SSO 2024-10-11 07:00:54 0.0001445477 917.0 (m) PAYLOAD

Associated space launch

Chinese satellite reported for atmospheric/ocean/environmental/spatial parameter research purposes, details TBD.

CZ-6A DEB was lifted into orbit during the mission ‘Long March 6A | Yunhai 3’, on board a Long March 6A space rocket.

The launch took place on Nov. 11, 2022, 10:52 p.m. from Launch Complex 9A.

For more information about the launch, click the button.

Launch to space Long March 6A | Yunhai 3
Long March 6A | Yunhai 3

Agency: N/A

Status: Launch Successful

Launch date: Nov. 11, 2022, 10:52 p.m. UTC

Rocket: Long March 6A

Launch pad: Launch Complex 9A

Location: Taiyuan Satellite Launch Center, People's Republic of China

...

Latest news about this satellite

There are no fresh news available about this satellite. Check back as we update our databases every day.


Newsletter sign-up

Weekly statistics, charts and insights to help you stay on top of the space industry.